Year,Month,Day,Hour,Minute,Value (Times are PST for temperature in C)
2018,05,25,00,00,14.20
2018,05,25,00,01,14.20
2018,05,25,00,02,14.20
2018,05,25,00,03,14.30
2018,05,25,00,04,14.30
2018,05,25,00,05,14.30
2018,05,25,00,06,14.30
2018,05,25,00,07,14.20
2018,05,25,00,08,14.20
2018,05,25,00,09,14.20
2018,05,25,00,10,14.20
2018,05,25,00,11,14.20
2018,05,25,00,12,14.20
2018,05,25,00,13,14.20
2018,05,25,00,14,14.20
2018,05,25,00,15,14.20
2018,05,25,00,16,14.20
2018,05,25,00,17,14.20
2018,05,25,00,18,14.30
2018,05,25,00,19,14.30
2018,05,25,00,20,14.30
2018,05,25,00,21,14.30
2018,05,25,00,22,14.30
2018,05,25,00,23,14.30
2018,05,25,00,24,14.30
2018,05,25,00,25,14.40
2018,05,25,00,26,14.40
2018,05,25,00,27,14.40
2018,05,25,00,28,14.40
2018,05,25,00,29,14.50
2018,05,25,00,30,14.50
2018,05,25,00,31,14.50
2018,05,25,00,32,14.50
2018,05,25,00,33,14.50
2018,05,25,00,34,14.50
2018,05,25,00,35,14.50
2018,05,25,00,36,14.50
2018,05,25,00,37,14.50
2018,05,25,00,38,14.50
2018,05,25,00,39,14.50
2018,05,25,00,40,14.50
2018,05,25,00,41,14.50
2018,05,25,00,42,14.50
2018,05,25,00,43,14.50
2018,05,25,00,44,14.40
2018,05,25,00,45,14.40
2018,05,25,00,46,14.40
2018,05,25,00,47,14.40
2018,05,25,00,48,14.40
2018,05,25,00,49,14.40
2018,05,25,00,50,14.30
2018,05,25,00,51,14.40
2018,05,25,00,52,14.40
2018,05,25,00,53,14.40
2018,05,25,00,54,14.40
2018,05,25,00,55,14.30
2018,05,25,00,56,14.30
2018,05,25,00,57,14.30
2018,05,25,00,58,14.20
2018,05,25,00,59,14.10
2018,05,25,01,00,14.10
2018,05,25,01,01,14.00
2018,05,25,01,02,13.90
2018,05,25,01,03,13.90
2018,05,25,01,04,13.80
2018,05,25,01,05,13.80
2018,05,25,01,06,13.70
2018,05,25,01,07,13.70
2018,05,25,01,08,13.60
2018,05,25,01,09,13.60
2018,05,25,01,10,13.60
2018,05,25,01,11,13.60
2018,05,25,01,12,13.60
2018,05,25,01,13,13.50
2018,05,25,01,14,13.50
2018,05,25,01,15,13.50
2018,05,25,01,16,13.40
2018,05,25,01,17,13.40
2018,05,25,01,18,13.40
2018,05,25,01,19,13.40
2018,05,25,01,20,13.30
2018,05,25,01,21,13.30
2018,05,25,01,22,13.30
2018,05,25,01,23,13.30
2018,05,25,01,24,13.20
2018,05,25,01,25,13.20
2018,05,25,01,26,13.20
2018,05,25,01,27,13.20
2018,05,25,01,28,13.20
2018,05,25,01,29,13.20
2018,05,25,01,30,13.20
2018,05,25,01,31,13.20
2018,05,25,01,32,13.20
2018,05,25,01,33,13.20
2018,05,25,01,34,13.20
2018,05,25,01,35,13.20
2018,05,25,01,36,13.20
2018,05,25,01,37,13.20
2018,05,25,01,38,13.20
2018,05,25,01,39,13.20
2018,05,25,01,40,13.20
2018,05,25,01,41,13.20
2018,05,25,01,42,13.20
2018,05,25,01,43,13.20
2018,05,25,01,44,13.20
2018,05,25,01,45,13.20
2018,05,25,01,46,13.20
2018,05,25,01,47,13.20
2018,05,25,01,48,13.20
2018,05,25,01,49,13.20
2018,05,25,01,50,13.20
2018,05,25,01,51,13.20
2018,05,25,01,52,13.20
2018,05,25,01,53,13.20
2018,05,25,01,54,13.20
2018,05,25,01,55,13.20
2018,05,25,01,56,13.20
2018,05,25,01,57,13.20
2018,05,25,01,58,13.20
2018,05,25,01,59,13.20
2018,05,25,02,00,13.20
2018,05,25,02,01,13.20
2018,05,25,02,02,13.20
2018,05,25,02,03,13.20
2018,05,25,02,04,13.20
2018,05,25,02,05,13.20
2018,05,25,02,06,13.10
2018,05,25,02,07,13.10
2018,05,25,02,08,13.10
2018,05,25,02,09,13.10
2018,05,25,02,10,13.10
2018,05,25,02,11,13.10
2018,05,25,02,12,13.10
2018,05,25,02,13,13.10
2018,05,25,02,14,13.10
2018,05,25,02,15,13.10
2018,05,25,02,16,13.10
2018,05,25,02,17,13.10
2018,05,25,02,18,13.10
2018,05,25,02,19,13.10
2018,05,25,02,20,13.10
2018,05,25,02,21,13.10
2018,05,25,02,22,13.20
2018,05,25,02,23,13.20
2018,05,25,02,24,13.30
2018,05,25,02,25,13.30
2018,05,25,02,26,13.30
2018,05,25,02,27,13.30
2018,05,25,02,28,13.30
2018,05,25,02,29,13.30
2018,05,25,02,30,13.30
2018,05,25,02,31,13.30
2018,05,25,02,32,13.30
2018,05,25,02,33,13.30
2018,05,25,02,34,13.30
2018,05,25,02,35,13.30
2018,05,25,02,36,13.30
2018,05,25,02,37,13.20
2018,05,25,02,38,13.20
2018,05,25,02,39,13.20
2018,05,25,02,40,13.20
2018,05,25,02,41,13.10
2018,05,25,02,42,13.10
2018,05,25,02,43,13.10
2018,05,25,02,44,13.00
2018,05,25,02,45,13.00
2018,05,25,02,46,13.00
2018,05,25,02,47,12.90
2018,05,25,02,48,12.90
2018,05,25,02,49,12.90
2018,05,25,02,50,12.80
2018,05,25,02,51,12.80
2018,05,25,02,52,12.80
2018,05,25,02,53,12.80
2018,05,25,02,54,12.80
2018,05,25,02,55,12.70
2018,05,25,02,56,12.70
2018,05,25,02,57,12.70
2018,05,25,02,58,12.70
2018,05,25,02,59,12.70
2018,05,25,03,00,12.70
2018,05,25,03,01,12.60
2018,05,25,03,02,12.60
2018,05,25,03,03,12.60
2018,05,25,03,04,12.60
2018,05,25,03,05,12.60
2018,05,25,03,06,12.60
2018,05,25,03,07,12.50
2018,05,25,03,08,12.40
2018,05,25,03,09,12.40
2018,05,25,03,10,12.30
2018,05,25,03,11,12.20
2018,05,25,03,12,12.20
2018,05,25,03,13,12.10
2018,05,25,03,14,12.00
2018,05,25,03,15,11.90
2018,05,25,03,16,11.80
2018,05,25,03,17,11.70
2018,05,25,03,18,11.60
2018,05,25,03,19,11.50
2018,05,25,03,20,11.50
2018,05,25,03,21,11.40
2018,05,25,03,22,11.40
2018,05,25,03,23,11.30
2018,05,25,03,24,11.30
2018,05,25,03,25,11.30
2018,05,25,03,26,11.30
2018,05,25,03,27,11.20
2018,05,25,03,28,11.20
2018,05,25,03,29,11.20
2018,05,25,03,30,11.20
2018,05,25,03,31,11.30
2018,05,25,03,32,11.30
2018,05,25,03,33,11.30
2018,05,25,03,34,11.30
2018,05,25,03,35,11.30
2018,05,25,03,36,11.30
2018,05,25,03,37,11.30
2018,05,25,03,38,11.30
2018,05,25,03,39,11.30
2018,05,25,03,40,11.30
2018,05,25,03,41,11.30
2018,05,25,03,42,11.30
2018,05,25,03,43,11.30
2018,05,25,03,44,11.30
2018,05,25,03,45,11.30
2018,05,25,03,46,11.40
2018,05,25,03,47,11.40
2018,05,25,03,48,11.40
2018,05,25,03,49,11.40
2018,05,25,03,50,11.40
2018,05,25,03,51,11.40
2018,05,25,03,52,11.40
2018,05,25,03,53,11.40
2018,05,25,03,54,11.50
2018,05,25,03,55,11.50
2018,05,25,03,56,11.50
2018,05,25,03,57,11.60
2018,05,25,03,58,11.60
2018,05,25,03,59,11.60
2018,05,25,04,00,11.60
2018,05,25,04,01,11.70
2018,05,25,04,02,11.70
2018,05,25,04,03,11.70
2018,05,25,04,04,11.80
2018,05,25,04,05,11.80
2018,05,25,04,06,11.80
2018,05,25,04,07,11.90
2018,05,25,04,08,11.90
2018,05,25,04,09,11.90
2018,05,25,04,10,11.80
2018,05,25,04,11,11.80
2018,05,25,04,12,11.80
2018,05,25,04,13,11.80
2018,05,25,04,14,11.80
2018,05,25,04,15,11.80
2018,05,25,04,16,11.70
2018,05,25,04,17,11.70
2018,05,25,04,18,11.70
2018,05,25,04,19,11.70
2018,05,25,04,20,11.70
2018,05,25,04,21,11.70
2018,05,25,04,22,11.70
2018,05,25,04,23,11.70
2018,05,25,04,24,11.70
2018,05,25,04,25,11.60
2018,05,25,04,26,11.60
2018,05,25,04,27,11.60
2018,05,25,04,28,11.60
2018,05,25,04,29,11.60
2018,05,25,04,30,11.50
2018,05,25,04,31,11.50
2018,05,25,04,32,11.50
2018,05,25,04,33,11.50
2018,05,25,04,34,11.40
2018,05,25,04,35,11.40
2018,05,25,04,36,11.40
2018,05,25,04,37,11.40
2018,05,25,04,38,11.30
2018,05,25,04,39,11.30
2018,05,25,04,40,11.30
2018,05,25,04,41,11.30
2018,05,25,04,42,11.30
2018,05,25,04,43,11.20
2018,05,25,04,44,11.20
2018,05,25,04,45,11.20
2018,05,25,04,46,11.20
2018,05,25,04,47,11.20
2018,05,25,04,48,11.20
2018,05,25,04,49,11.10
2018,05,25,04,50,11.10
2018,05,25,04,51,11.10
2018,05,25,04,52,11.10
2018,05,25,04,53,11.10
2018,05,25,04,54,11.10
2018,05,25,04,55,11.10
2018,05,25,04,56,11.10
2018,05,25,04,57,11.10
2018,05,25,04,58,11.00
2018,05,25,04,59,11.00
2018,05,25,05,00,11.00
2018,05,25,05,01,10.90
2018,05,25,05,02,10.90
2018,05,25,05,03,10.80
2018,05,25,05,04,10.70
2018,05,25,05,05,10.70
2018,05,25,05,06,10.60
2018,05,25,05,07,10.50
2018,05,25,05,08,10.50
2018,05,25,05,09,10.40
2018,05,25,05,10,10.40
2018,05,25,05,11,10.30
2018,05,25,05,12,10.30
2018,05,25,05,13,10.20
2018,05,25,05,14,10.20
2018,05,25,05,15,10.20
2018,05,25,05,16,10.20
2018,05,25,05,17,10.20
2018,05,25,05,18,10.20
2018,05,25,05,19,10.20
2018,05,25,05,20,10.20
2018,05,25,05,21,10.20
2018,05,25,05,22,10.20
2018,05,25,05,23,10.20
2018,05,25,05,24,10.20
2018,05,25,05,25,10.20
2018,05,25,05,26,10.20
2018,05,25,05,27,10.20
2018,05,25,05,28,10.20
2018,05,25,05,29,10.20
2018,05,25,05,30,10.10
2018,05,25,05,31,10.10
2018,05,25,05,32,10.10
2018,05,25,05,33,10.10
2018,05,25,05,34,10.10
2018,05,25,05,35,10.10
2018,05,25,05,36,10.00
2018,05,25,05,37,10.00
2018,05,25,05,38,10.00
2018,05,25,05,39,10.00
2018,05,25,05,40,9.90
2018,05,25,05,41,9.90
2018,05,25,05,42,9.90
2018,05,25,05,43,9.90
2018,05,25,05,44,9.90
2018,05,25,05,45,9.90
2018,05,25,05,46,9.90
2018,05,25,05,47,9.80
2018,05,25,05,48,9.80
2018,05,25,05,49,9.80
2018,05,25,05,50,9.80
2018,05,25,05,51,9.80
2018,05,25,05,52,9.80
2018,05,25,05,53,9.90
2018,05,25,05,54,9.90
2018,05,25,05,55,9.90
2018,05,25,05,56,9.90
2018,05,25,05,57,10.00
2018,05,25,05,58,10.00
2018,05,25,05,59,10.00
2018,05,25,06,00,10.10
2018,05,25,06,01,10.10
2018,05,25,06,02,10.10
2018,05,25,06,03,10.10
2018,05,25,06,04,10.10
2018,05,25,06,05,10.10
2018,05,25,06,06,10.20
2018,05,25,06,07,10.20
2018,05,25,06,08,10.20
2018,05,25,06,09,10.20
2018,05,25,06,10,10.20
2018,05,25,06,11,10.20
2018,05,25,06,12,10.30
2018,05,25,06,13,10.30
2018,05,25,06,14,10.30
2018,05,25,06,15,10.30
2018,05,25,06,16,10.30
2018,05,25,06,17,10.30
2018,05,25,06,18,10.30
2018,05,25,06,19,10.30
2018,05,25,06,20,10.40
2018,05,25,06,21,10.40
2018,05,25,06,22,10.40
2018,05,25,06,23,10.40
2018,05,25,06,24,10.50
2018,05,25,06,25,10.40
2018,05,25,06,26,10.40
2018,05,25,06,27,10.40
2018,05,25,06,28,10.40
2018,05,25,06,29,10.40
2018,05,25,06,30,10.30
2018,05,25,06,31,10.30
2018,05,25,06,32,10.20
2018,05,25,06,33,10.10
2018,05,25,06,34,10.10
2018,05,25,06,35,10.00
2018,05,25,06,36,9.90
2018,05,25,06,37,9.90
2018,05,25,06,38,9.80
2018,05,25,06,39,9.70
2018,05,25,06,40,9.70
2018,05,25,06,41,9.70
2018,05,25,06,42,9.60
2018,05,25,06,43,9.60
2018,05,25,06,44,9.60
2018,05,25,06,45,9.60
2018,05,25,06,46,9.60
2018,05,25,06,47,9.70
2018,05,25,06,48,9.70
2018,05,25,06,49,9.70
2018,05,25,06,50,9.80
2018,05,25,06,51,9.80
2018,05,25,06,52,9.80
2018,05,25,06,53,9.90
2018,05,25,06,54,9.90
2018,05,25,06,55,10.00
2018,05,25,06,56,10.10
2018,05,25,06,57,10.10
2018,05,25,06,58,10.20
2018,05,25,06,59,10.20
2018,05,25,07,00,10.30
2018,05,25,07,01,10.40
2018,05,25,07,02,10.40
2018,05,25,07,03,10.50
2018,05,25,07,04,10.50
2018,05,25,07,05,10.50
2018,05,25,07,06,10.50
2018,05,25,07,07,10.50
2018,05,25,07,08,10.50
2018,05,25,07,09,10.50
2018,05,25,07,10,10.50
2018,05,25,07,11,10.50
2018,05,25,07,12,10.50
2018,05,25,07,13,10.50
2018,05,25,07,14,10.50
2018,05,25,07,15,10.50
2018,05,25,07,16,10.60
2018,05,25,07,17,10.60
2018,05,25,07,18,10.60
2018,05,25,07,19,10.70
2018,05,25,07,20,10.70
2018,05,25,07,21,10.80
2018,05,25,07,22,10.80
2018,05,25,07,23,10.90
2018,05,25,07,24,10.90
2018,05,25,07,25,10.90
2018,05,25,07,26,10.90
2018,05,25,07,27,10.90
2018,05,25,07,28,10.90
2018,05,25,07,29,10.90
2018,05,25,07,30,10.90
2018,05,25,07,31,10.90
2018,05,25,07,32,10.90
2018,05,25,07,33,10.90
2018,05,25,07,34,10.90
2018,05,25,07,35,11.00
2018,05,25,07,36,11.00
2018,05,25,07,37,11.00
2018,05,25,07,38,11.00
2018,05,25,07,39,11.00
2018,05,25,07,40,11.10
2018,05,25,07,41,11.10
2018,05,25,07,42,11.10
2018,05,25,07,43,11.20
2018,05,25,07,44,11.20
2018,05,25,07,45,11.20
2018,05,25,07,46,11.20
2018,05,25,07,47,11.30
2018,05,25,07,48,11.30
2018,05,25,07,49,11.30
2018,05,25,07,50,11.40
2018,05,25,07,51,11.40
2018,05,25,07,52,11.50
2018,05,25,07,53,11.50
2018,05,25,07,54,11.60
2018,05,25,07,55,11.60
2018,05,25,07,56,11.70
2018,05,25,07,57,11.70
2018,05,25,07,58,11.80
2018,05,25,07,59,11.80
2018,05,25,08,00,11.90
2018,05,25,08,01,11.90
2018,05,25,08,02,11.90
2018,05,25,08,03,12.00
2018,05,25,08,04,12.00
2018,05,25,08,05,12.10
2018,05,25,08,06,12.10
2018,05,25,08,07,12.20
2018,05,25,08,08,12.20
2018,05,25,08,09,12.30
2018,05,25,08,10,12.30
2018,05,25,08,11,12.30
2018,05,25,08,12,12.30
2018,05,25,08,13,12.30
2018,05,25,08,14,12.40
2018,05,25,08,15,12.40
2018,05,25,08,16,12.40
2018,05,25,08,17,12.40
2018,05,25,08,18,12.40
2018,05,25,08,19,12.50
2018,05,25,08,20,12.50
2018,05,25,08,21,12.50
2018,05,25,08,22,12.50
2018,05,25,08,23,12.60
2018,05,25,08,24,12.60
2018,05,25,08,25,12.60
2018,05,25,08,26,12.60
2018,05,25,08,27,12.70
2018,05,25,08,28,12.70
2018,05,25,08,29,12.80
2018,05,25,08,30,12.80
2018,05,25,08,31,12.90
2018,05,25,08,32,13.00
2018,05,25,08,33,13.00
2018,05,25,08,34,13.10
2018,05,25,08,35,13.20
2018,05,25,08,36,13.30
2018,05,25,08,37,13.30
2018,05,25,08,38,13.40
2018,05,25,08,39,13.50
2018,05,25,08,40,13.60
2018,05,25,08,41,13.70
2018,05,25,08,42,13.70
2018,05,25,08,43,13.80
2018,05,25,08,44,13.80
2018,05,25,08,45,13.90
2018,05,25,08,46,13.90
2018,05,25,08,47,13.90
2018,05,25,08,48,13.90
2018,05,25,08,49,13.90
2018,05,25,08,50,13.90
2018,05,25,08,51,14.00
2018,05,25,08,52,14.00
2018,05,25,08,53,14.00
2018,05,25,08,54,14.00
2018,05,25,08,55,14.10
2018,05,25,08,56,14.10
2018,05,25,08,57,14.10
2018,05,25,08,58,14.10
2018,05,25,08,59,14.10
2018,05,25,09,00,14.20
2018,05,25,09,01,14.20
2018,05,25,09,02,14.30
2018,05,25,09,03,14.30
2018,05,25,09,04,14.30
2018,05,25,09,05,14.30
2018,05,25,09,06,14.40
2018,05,25,09,07,14.40
2018,05,25,09,08,14.40
2018,05,25,09,09,14.50
2018,05,25,09,10,14.50
2018,05,25,09,11,14.60
2018,05,25,09,12,14.60
2018,05,25,09,13,14.60
2018,05,25,09,14,14.70
2018,05,25,09,15,14.70
2018,05,25,09,16,14.80
2018,05,25,09,17,14.80
2018,05,25,09,18,14.80
2018,05,25,09,19,14.80
2018,05,25,09,20,14.90
2018,05,25,09,21,14.90
2018,05,25,09,22,15.00
2018,05,25,09,23,15.00
2018,05,25,09,24,15.10
2018,05,25,09,25,15.10
2018,05,25,09,26,15.20
2018,05,25,09,27,15.20
2018,05,25,09,28,15.30
2018,05,25,09,29,15.30
2018,05,25,09,30,15.40
2018,05,25,09,31,15.40
2018,05,25,09,32,15.50
2018,05,25,09,33,15.50
2018,05,25,09,34,15.50
2018,05,25,09,35,15.60
2018,05,25,09,36,15.60
2018,05,25,09,37,15.60
2018,05,25,09,38,15.60
2018,05,25,09,39,15.70
2018,05,25,09,40,15.70
2018,05,25,09,41,15.80
2018,05,25,09,42,15.90
2018,05,25,09,43,15.90
2018,05,25,09,44,16.00
2018,05,25,09,45,16.00
2018,05,25,09,46,16.10
2018,05,25,09,47,16.20
2018,05,25,09,48,16.20
2018,05,25,09,49,16.30
2018,05,25,09,50,16.30
2018,05,25,09,51,16.30
2018,05,25,09,52,16.40
2018,05,25,09,53,16.40
2018,05,25,09,54,16.30
2018,05,25,09,55,16.30
2018,05,25,09,56,16.30
2018,05,25,09,57,16.40
2018,05,25,09,58,16.40
2018,05,25,09,59,16.40
2018,05,25,10,00,16.50
2018,05,25,10,01,16.50
2018,05,25,10,02,16.60
2018,05,25,10,03,16.60
2018,05,25,10,04,16.60
2018,05,25,10,05,16.60
2018,05,25,10,06,16.60
2018,05,25,10,07,16.60
2018,05,25,10,08,16.60
2018,05,25,10,09,16.60
2018,05,25,10,10,16.60
2018,05,25,10,11,16.70
2018,05,25,10,12,16.70
2018,05,25,10,13,16.70
2018,05,25,10,14,16.80
2018,05,25,10,15,16.80
2018,05,25,10,16,16.80
2018,05,25,10,17,16.80
2018,05,25,10,18,16.80
2018,05,25,10,19,16.80
2018,05,25,10,20,16.80
2018,05,25,10,21,16.80
2018,05,25,10,22,16.90
2018,05,25,10,23,16.90
2018,05,25,10,24,17.00
2018,05,25,10,25,17.00
2018,05,25,10,26,17.10
2018,05,25,10,27,17.10
2018,05,25,10,28,17.10
2018,05,25,10,29,17.20
2018,05,25,10,30,17.20
2018,05,25,10,31,17.20
2018,05,25,10,32,17.20
2018,05,25,10,33,17.20
2018,05,25,10,34,17.20
2018,05,25,10,35,17.20
2018,05,25,10,36,17.20
2018,05,25,10,37,17.20
2018,05,25,10,38,17.20
2018,05,25,10,39,17.30
2018,05,25,10,40,17.30
2018,05,25,10,41,17.30
2018,05,25,10,42,17.40
2018,05,25,10,43,17.40
2018,05,25,10,44,17.50
2018,05,25,10,45,17.60
2018,05,25,10,46,17.70
2018,05,25,10,47,17.80
2018,05,25,10,48,17.80
2018,05,25,10,49,17.90
2018,05,25,10,50,17.90
2018,05,25,10,51,17.90
2018,05,25,10,52,17.90
2018,05,25,10,53,17.90
2018,05,25,10,54,18.00
2018,05,25,10,55,18.00
2018,05,25,10,56,18.00
2018,05,25,10,57,18.00
2018,05,25,10,58,18.00
2018,05,25,10,59,18.10
2018,05,25,11,00,18.20
2018,05,25,11,01,18.20
2018,05,25,11,02,18.30
2018,05,25,11,03,18.30
2018,05,25,11,04,18.40
2018,05,25,11,05,18.40
2018,05,25,11,06,18.40
2018,05,25,11,07,18.40
2018,05,25,11,08,18.40
2018,05,25,11,09,18.50
2018,05,25,11,10,18.50
2018,05,25,11,11,18.50
2018,05,25,11,12,18.50
2018,05,25,11,13,18.40
2018,05,25,11,14,18.40
2018,05,25,11,15,18.50
2018,05,25,11,16,18.60
2018,05,25,11,17,18.60
2018,05,25,11,18,18.70
2018,05,25,11,19,18.70
2018,05,25,11,20,18.70
2018,05,25,11,21,18.70
2018,05,25,11,22,18.70
2018,05,25,11,23,18.70
2018,05,25,11,24,18.70
2018,05,25,11,25,18.70
2018,05,25,11,26,18.70
2018,05,25,11,27,18.70
2018,05,25,11,28,18.70
2018,05,25,11,29,18.70
2018,05,25,11,30,18.70
2018,05,25,11,31,18.70
2018,05,25,11,32,18.70
2018,05,25,11,33,18.70
2018,05,25,11,34,18.70
2018,05,25,11,35,18.70
2018,05,25,11,36,18.70
2018,05,25,11,37,18.70
2018,05,25,11,38,18.70
2018,05,25,11,39,18.70
2018,05,25,11,40,18.70
2018,05,25,11,41,18.70
2018,05,25,11,42,18.70
2018,05,25,11,43,18.70
2018,05,25,11,44,18.70
2018,05,25,11,45,18.70
2018,05,25,11,46,18.70
2018,05,25,11,47,18.70
2018,05,25,11,48,18.80
2018,05,25,11,49,18.80
2018,05,25,11,50,18.80
2018,05,25,11,51,18.80
2018,05,25,11,52,18.90
2018,05,25,11,53,18.90
2018,05,25,11,54,18.90
2018,05,25,11,55,18.90
2018,05,25,11,56,18.90
2018,05,25,11,57,18.90
2018,05,25,11,58,18.90
2018,05,25,11,59,18.90
2018,05,25,12,00,19.00
2018,05,25,12,01,19.00
2018,05,25,12,02,19.10
2018,05,25,12,03,19.20
2018,05,25,12,04,19.20
2018,05,25,12,05,19.30
2018,05,25,12,06,19.30
2018,05,25,12,07,19.30
2018,05,25,12,08,19.30
2018,05,25,12,09,19.30
2018,05,25,12,10,19.30
2018,05,25,12,11,19.30
2018,05,25,12,12,19.30
2018,05,25,12,13,19.30
2018,05,25,12,14,19.40
2018,05,25,12,15,19.40
2018,05,25,12,16,19.40
2018,05,25,12,17,19.40
2018,05,25,12,18,19.30
2018,05,25,12,19,19.30
2018,05,25,12,20,19.30
2018,05,25,12,21,19.30
2018,05,25,12,22,19.30
2018,05,25,12,23,19.30
2018,05,25,12,24,19.30
2018,05,25,12,25,19.20
2018,05,25,12,26,19.20
2018,05,25,12,27,19.20
2018,05,25,12,28,19.20
2018,05,25,12,29,19.10
2018,05,25,12,30,19.10
2018,05,25,12,31,19.10
2018,05,25,12,32,19.10
2018,05,25,12,33,19.10
2018,05,25,12,34,19.20
2018,05,25,12,35,19.30
2018,05,25,12,36,19.40
2018,05,25,12,37,19.40
2018,05,25,12,38,19.50
2018,05,25,12,39,19.60
2018,05,25,12,40,19.70
2018,05,25,12,41,19.70
2018,05,25,12,42,19.80
2018,05,25,12,43,19.90
2018,05,25,12,44,19.90
2018,05,25,12,45,19.90
2018,05,25,12,46,19.90
2018,05,25,12,47,19.90
2018,05,25,12,48,20.00
2018,05,25,12,49,20.10
2018,05,25,12,50,20.10
2018,05,25,12,51,20.10
2018,05,25,12,52,20.00
2018,05,25,12,53,20.00
2018,05,25,12,54,20.00
2018,05,25,12,55,20.00
2018,05,25,12,56,20.00
2018,05,25,12,57,19.90
2018,05,25,12,58,20.00
2018,05,25,12,59,20.00
2018,05,25,13,00,20.10
2018,05,25,13,01,20.10
2018,05,25,13,02,20.10
2018,05,25,13,03,20.00
2018,05,25,13,04,19.90
2018,05,25,13,05,19.80
2018,05,25,13,06,19.70
2018,05,25,13,07,19.70
2018,05,25,13,08,19.70
2018,05,25,13,09,19.70
2018,05,25,13,10,19.60
2018,05,25,13,11,19.60
2018,05,25,13,12,19.60
2018,05,25,13,13,19.60
2018,05,25,13,14,19.70
2018,05,25,13,15,19.80
2018,05,25,13,16,19.80
2018,05,25,13,17,19.90
2018,05,25,13,18,19.90
2018,05,25,13,19,19.90
2018,05,25,13,20,19.90
2018,05,25,13,21,19.90
2018,05,25,13,22,19.90
2018,05,25,13,23,19.90
2018,05,25,13,24,19.80
2018,05,25,13,25,19.80
2018,05,25,13,26,19.80
2018,05,25,13,27,19.80
2018,05,25,13,28,19.90
2018,05,25,13,29,19.90
2018,05,25,13,30,20.00
2018,05,25,13,31,20.00
2018,05,25,13,32,20.10
2018,05,25,13,33,20.10
2018,05,25,13,34,20.00
2018,05,25,13,35,20.00
2018,05,25,13,36,19.90
2018,05,25,13,37,19.90
2018,05,25,13,38,19.80
2018,05,25,13,39,19.80
2018,05,25,13,40,19.80
2018,05,25,13,41,19.80
2018,05,25,13,42,19.70
2018,05,25,13,43,19.70
2018,05,25,13,44,19.70
2018,05,25,13,45,19.70
2018,05,25,13,46,19.60
2018,05,25,13,47,19.50
2018,05,25,13,48,19.40
2018,05,25,13,49,19.40
2018,05,25,13,50,19.40
2018,05,25,13,51,19.40
2018,05,25,13,52,19.50
2018,05,25,13,53,19.60
2018,05,25,13,54,19.80
2018,05,25,13,55,19.90
2018,05,25,13,56,20.10
2018,05,25,13,57,20.20
2018,05,25,13,58,20.30
2018,05,25,13,59,20.20
2018,05,25,14,00,20.20
2018,05,25,14,01,20.20
2018,05,25,14,02,20.20
2018,05,25,14,03,20.20
2018,05,25,14,04,20.30
2018,05,25,14,05,20.30
2018,05,25,14,06,20.20
2018,05,25,14,07,20.30
2018,05,25,14,08,20.30
2018,05,25,14,09,20.40
2018,05,25,14,10,20.40
2018,05,25,14,11,20.50
2018,05,25,14,12,20.60
2018,05,25,14,13,20.80
2018,05,25,14,14,20.90
2018,05,25,14,15,21.00
2018,05,25,14,16,21.10
2018,05,25,14,17,21.20
2018,05,25,14,18,21.30
2018,05,25,14,19,21.40
2018,05,25,14,20,21.40
2018,05,25,14,21,21.40
2018,05,25,14,22,21.40
2018,05,25,14,23,21.50
2018,05,25,14,24,21.50
2018,05,25,14,25,21.50
2018,05,25,14,26,21.50
2018,05,25,14,27,21.40
2018,05,25,14,28,21.40
2018,05,25,14,29,21.30
2018,05,25,14,30,21.30
2018,05,25,14,31,21.30
2018,05,25,14,32,21.40
2018,05,25,14,33,21.40
2018,05,25,14,34,21.40
2018,05,25,14,35,21.30
2018,05,25,14,36,21.30
2018,05,25,14,37,21.30
2018,05,25,14,38,21.20
2018,05,25,14,39,21.10
2018,05,25,14,40,21.00
2018,05,25,14,41,20.90
2018,05,25,14,42,20.90
2018,05,25,14,43,20.80
2018,05,25,14,44,20.70
2018,05,25,14,45,20.70
2018,05,25,14,46,20.60
2018,05,25,14,47,20.50
2018,05,25,14,48,20.40
2018,05,25,14,49,20.30
2018,05,25,14,50,20.30
2018,05,25,14,51,20.20
2018,05,25,14,52,20.10
2018,05,25,14,53,20.10
2018,05,25,14,54,20.10
2018,05,25,14,55,20.00
2018,05,25,14,56,20.00
2018,05,25,14,57,20.00
2018,05,25,14,58,20.00
2018,05,25,14,59,20.00
2018,05,25,15,00,19.90
2018,05,25,15,01,20.00
2018,05,25,15,02,20.00
2018,05,25,15,03,20.10
2018,05,25,15,04,20.10
2018,05,25,15,05,20.10
2018,05,25,15,06,20.20
2018,05,25,15,07,20.20
2018,05,25,15,08,20.20
2018,05,25,15,09,20.20
2018,05,25,15,10,20.20
2018,05,25,15,11,20.20
2018,05,25,15,12,20.30
2018,05,25,15,13,20.30
2018,05,25,15,14,20.30
2018,05,25,15,15,20.40
2018,05,25,15,16,20.40
2018,05,25,15,17,20.50
2018,05,25,15,18,20.50
2018,05,25,15,19,20.60
2018,05,25,15,20,20.60
2018,05,25,15,21,20.60
2018,05,25,15,22,20.50
2018,05,25,15,23,20.40
2018,05,25,15,24,20.40
2018,05,25,15,25,20.40
2018,05,25,15,26,20.40
2018,05,25,15,27,20.40
2018,05,25,15,28,20.40
2018,05,25,15,29,20.40
2018,05,25,15,30,20.40
2018,05,25,15,31,20.30
2018,05,25,15,32,20.30
2018,05,25,15,33,20.30
2018,05,25,15,34,20.20
2018,05,25,15,35,20.20
2018,05,25,15,36,20.20
2018,05,25,15,37,20.20
2018,05,25,15,38,20.20
2018,05,25,15,39,20.20
2018,05,25,15,40,20.20
2018,05,25,15,41,20.30
2018,05,25,15,42,20.30
2018,05,25,15,43,20.40
2018,05,25,15,44,20.30
2018,05,25,15,45,20.30
2018,05,25,15,46,20.30
2018,05,25,15,47,20.20
2018,05,25,15,48,20.20
2018,05,25,15,49,20.20
2018,05,25,15,50,20.20
2018,05,25,15,51,20.00
2018,05,25,15,52,19.90
2018,05,25,15,53,19.90
2018,05,25,15,54,19.90
2018,05,25,15,55,19.90
2018,05,25,15,56,19.90
2018,05,25,15,57,20.00
2018,05,25,15,58,20.00
2018,05,25,15,59,20.00
2018,05,25,16,00,20.00
2018,05,25,16,01,20.00
2018,05,25,16,02,20.10
2018,05,25,16,03,20.10
2018,05,25,16,04,20.20
2018,05,25,16,05,20.40
2018,05,25,16,06,20.50
2018,05,25,16,07,20.60
2018,05,25,16,08,20.70
2018,05,25,16,09,20.80
2018,05,25,16,10,20.90
2018,05,25,16,11,21.00
2018,05,25,16,12,21.00
2018,05,25,16,13,21.10
2018,05,25,16,14,21.10
2018,05,25,16,15,21.10
2018,05,25,16,16,21.10
2018,05,25,16,17,21.00
2018,05,25,16,18,21.00
2018,05,25,16,19,20.90
2018,05,25,16,20,20.90
2018,05,25,16,21,20.90
2018,05,25,16,22,20.80
2018,05,25,16,23,20.80
2018,05,25,16,24,20.90
2018,05,25,16,25,20.90
2018,05,25,16,26,21.00
2018,05,25,16,27,21.00
2018,05,25,16,28,21.10
2018,05,25,16,29,21.20
2018,05,25,16,30,21.20
2018,05,25,16,31,21.20
2018,05,25,16,32,21.30
2018,05,25,16,33,21.30
2018,05,25,16,34,21.30
2018,05,25,16,35,21.30
2018,05,25,16,36,21.20
2018,05,25,16,37,21.20
2018,05,25,16,38,21.10
2018,05,25,16,39,21.00
2018,05,25,16,40,21.00
2018,05,25,16,41,20.80
2018,05,25,16,42,20.70
2018,05,25,16,43,20.60
2018,05,25,16,44,20.40
2018,05,25,16,45,20.40
2018,05,25,16,46,20.30
2018,05,25,16,47,20.20
2018,05,25,16,48,20.30
2018,05,25,16,49,20.30
2018,05,25,16,50,20.30
2018,05,25,16,51,20.30
2018,05,25,16,52,20.30
2018,05,25,16,53,20.20
2018,05,25,16,54,20.20
2018,05,25,16,55,20.10
2018,05,25,16,56,20.10
2018,05,25,16,57,20.10
2018,05,25,16,58,20.20
2018,05,25,16,59,20.30
2018,05,25,17,00,20.30
2018,05,25,17,01,20.40
2018,05,25,17,02,20.40
2018,05,25,17,03,20.40
2018,05,25,17,04,20.40
2018,05,25,17,05,20.50
2018,05,25,17,06,20.60
2018,05,25,17,07,20.70
2018,05,25,17,08,20.70
2018,05,25,17,09,20.70
2018,05,25,17,10,20.60
2018,05,25,17,11,20.60
2018,05,25,17,12,20.60
2018,05,25,17,13,20.60
2018,05,25,17,14,20.60
2018,05,25,17,15,20.60
2018,05,25,17,16,20.60
2018,05,25,17,17,20.50
2018,05,25,17,18,20.50
2018,05,25,17,19,20.30
2018,05,25,17,20,20.30
2018,05,25,17,21,20.20